Location: Abraham Lincoln Continuation High School
(33.9711°N, 117.3662°W)
Time: 23:57:05
(UTC+00:00)

Iridium 4 Rocket - Pass Details

Date: 24 January 2021
Orbit: 583 x 906 km, 86.9° (Epoch: 03 March)

Event Time Altitude Azimuth Distance (km) Brightness Sun altitude
Rises 04:12:45 0° 332° (NNW) 3,373 7.2 -37.4°
Reaches altitude 10° 04:17:37 10° 294° (WNW) 2,340 6.6 -38.4°
Maximum altitude 04:18:27 10° 285° (WNW) 2,296 6.6 -38.6°
Drops below altitude 10° 04:19:17 10° 276° (W) 2,303 6.7 -38.8°
Sets 04:23:51 0° 236° (SW) 3,119 7.3 -39.7°
